Regional Weather Roundup
Issued by NWS

Home | Current Version | Previous Version | Graphics & Text | Print | Product List | Glossary On
Versions: 1 2 3 4 5 6 7 8 9 10 11 12 13 14 15 16 17 18 19 20 21 22 23 24 25 26 27 28 29 30 31 32 33 34 35 36 37 38 39 40 41 42 43 44 45 46 47 48 49 50
000
ASUS43 KIND 261109
RWRIN

WEATHER ROUNDUP FOR INDIANA
NATIONAL WEATHER SERVICE INDIANAPOLIS IN
700 AM EDT SUN APR 26 2015

NOTE: "FAIR" INDICATES FEW OR NO CLOUDS BELOW 12,000 FEET WITH NO
SIGNIFICANT WEATHER AND/OR OBSTRUCTIONS TO VISIBILITY.

* - STATION DOES NOT REPORT WEATHER SUCH AS PRECIPITATION OR FOG.

+ - STATION NOT QUALITY CONTROLLED BY THE NATIONAL WEATHER SERVICE.
    USE DATA WITH CAUTION...ESPECIALLY DEWPOINT AND RELATIVE
    HUMIDITY OBSERVATIONS.

INZ001>003-010>013-019-020-261200-
NORTHWEST INDIANA

CITY           SKY/WX    TMP DP  RH WIND       PRES   REMARKS
GARY /AIRPORT/ PTCLDY    41  28  60 NE12G23   29.92R
KNOX *+        CLEAR     32  23  69 NE6       29.90R WCI  26
LA PORTE +     CLEAR     38  29  72 NE5       29.91R
MICHIGAN CITY+ CLEAR     34  27  75 CALM      29.93R
MONTICELLO +   CLEAR     37  32  83 NE6       29.88R
VALPARAISO     CLEAR     34  29  82 NE6       29.91R WCI  29

$$

LMZ046-743>745-261200-
SOUTHERN LAKE MICHIGAN

STATION/POSITION TIME  TEMP    WIND        PRES    WAVE
                       AIR SEA DIR/SP/G            HT
                 (UTC) (F)     (DEG/KT/KT) (MB)    (FT)
BURNS HARBOR     1100   42      50/ 16/ 18 1013.2S
MICHIGAN CITY    1100   42      40/ 18/ 21   N/A
5NW MICH CITY    1100   42 45   70/ 16/ 19   N/A     4

$$

INZ004-005-014>016-021>024-261200-
NORTH CENTRAL INDIANA

CITY           SKY/WX    TMP DP  RH WIND       PRES   REMARKS
GOSHEN         CLEAR     34  27  75 N9        29.90R WCI  27
LOGANSPORT +   CLEAR     36  30  80 N6        29.88R
PERU/GRISSOM   CLEAR     35  30  80 N8        29.86R WCI  29
ROCHESTER +    CLEAR     37  32  81 N6        29.89R
SOUTH BEND     CLEAR     36  27  69 NE10      29.92R
WARSAW +       CLEAR     34  28  80 NE6       29.89R WCI  29

$$

INZ006>009-017-018-025>027-261200-
NORTHEAST INDIANA

CITY           SKY/WX    TMP DP  RH WIND       PRES   REMARKS
ANGOLA *+      CLEAR     36  27  69 NE9       29.89R
AUBURN +       CLEAR     34  27  75 N7        29.88R WCI  28
FORT WAYNE     PTCLDY    35  28  75 N10       29.87R WCI  27
HUNTINGTON +   CLEAR     35  28  75 N6        29.86R WCI  30

$$

INZ028-029-035-036-043>045-051>053-261200-
WEST CENTRAL INDIANA

CITY           SKY/WX    TMP DP  RH WIND       PRES   REMARKS
CRAWFORDSVL +  CLEAR     37  29  74 N6        29.86R
GREENCASTLE +  CLEAR     37  30  75 N8        29.84R
LAFAYETTE      CLEAR     37  32  82 N7        29.87R
TERRE HAUTE    MOCLDY    43  32  65 NE13      29.84R

$$

INZ030>032-037>040-046>048-054>057-064-065-261200-
CENTRAL INDIANA

CITY           SKY/WX    TMP DP  RH WIND       PRES   REMARKS
CP ATTERBURY + CLOUDY    41  32  70 N7        29.82R
FISHERS *+     PTCLDY    37  34  87 NE7       29.84R
FRANKFORT +    CLEAR     39  32  77 N8        29.87R
GREENWOOD *+   PTCLDY    41  30  65 NE13      29.82R
INDIANAPOLIS   MOCLDY    40  30  67 NE13      29.81R
-EAGLE CREEK   PTCLDY    39  31  72 NE6       29.83R
KOKOMO *+      CLEAR     37  30  75 NE9       29.86R
MARION +       CLEAR     37  29  74 NE9       29.85R
MT COMFORT *+  CLEAR     39  28  65 N9        29.83R
SHELBYVILLE    MOCLDY    42  33  70 N13       29.81R
ZIONSVILLE +   PTCLDY    39  32  75 NE7       29.85R

$$

INZ033-034-041-042-049-050-058-059-261200-
EAST CENTRAL INDIANA

CITY           SKY/WX    TMP DP  RH WIND       PRES   REMARKS
MUNCIE         CLEAR     37  30  75 NE10      29.84R

$$

INZ060-061-067>069-081>083-085>088-261200-
SOUTHWEST INDIANA

CITY           SKY/WX    TMP DP  RH WIND       PRES   REMARKS
EVANSVILLE     CLOUDY    48  42  80 N9        29.80R
HUNTINGBURG *+ CLOUDY    46  39  76 N6        29.79R
WASHINGTON +   CLOUDY    45  34  66 NE9       29.80R

$$

INZ062-063-066-070>080-084-089>092-261200-
SOUTH CENTRAL AND SOUTHEAST INDIANA

CITY           SKY/WX    TMP DP  RH WIND       PRES   REMARKS
BEDFORD +      CLOUDY    43  30  61 N7        29.79
BLOOMINGTON    CLOUDY    42  31  64 NE10      29.80R
MADISON *+     CLOUDY    41  30  65 N7        29.78R
NORTH VERNON + CLOUDY    43  30  61 N7        29.79R
SEYMOUR +      CLOUDY    43  32  65 N10       29.78R

$$



USA.gov is the U.S. government's official web portal to all federal, state and local government web resources and services.